Flag for U.S.A. Weather past 2 weeks in Youngstown, Ohio, U.S.A.

Now
49 °F

Broken clouds.


Feels Like: 45 °F
Forecast: 44 / 65 °F
Wind: 8 mph from Southwest

Location: Youngstown-Warren Regional Airport

Current Time: Oct 25, 2014 at 9:37:48 AM

Latest Report: Oct 25, 2014 at 8:51 AM


Visibility: 10 mi

Pressure: 29.92 "Hg

Humidity: 77%

Dew point: 42 °F

Location of YoungstownLocation

Historic Weather in Youngstown — Graph

°F

Youngstown temperature yesterday

Maximum temperature yesterday: 61 °F (at 2:51 PM)
Minimum temperature yesterday: 36 °F (at 5:51 AM)
Average temperature yesterday: 48 °F

Past Weeks' High & Low Weather Summary

 TemperatureHumidityPressure
High79 °F (Oct 14, 3:51 PM)100% (Oct 10, 7:51 AM)30.24 "Hg (Oct 10, 7:51 AM)
Low31 °F (Oct 12, 5:51 AM)41% (Oct 24, 4:51 PM)29.57 "Hg (Oct 17, 2:51 PM)
Average52 °F79%29.97 "Hg
* Reported Oct 10 7:51 AM — Oct 25 7:51 AM, Youngstown, Weather by CustomWeather, © 2014

Note: Actual official high and low records may vary slightly from our data, if they occured in-between our weather recording intervals... More about our weather records

Advertising

Youngstown weather history for previous 24 hours

 ConditionsComfort  
Time TempWeatherWind HumidityBarometerVisibility
7:51 AM
Oct 25
47 °FPassing clouds.6 mph77%29.93 "Hg10 mi
6:51 AM46 °FPassing clouds.5 mph77%29.93 "Hg10 mi
5:51 AM47 °FOvercast.5 mph77%29.94 "Hg10 mi
4:51 AM47 °FPassing clouds.3 mph74%29.93 "Hg10 mi
3:51 AM47 °FPassing clouds.3 mph77%29.96 "Hg10 mi
2:51 AM48 °FOvercast.3 mph77%29.97 "Hg9 mi
1:51 AM49 °FOvercast.3 mph74%29.98 "Hg10 mi
12:51 AM49 °FOvercast.3 mph74%29.99 "Hg8 mi
11:51 PM
Oct 24
48 °FOvercast.No wind80%29.99 "Hg10 mi
10:51 PM49 °FOvercast.No wind74%30.00 "Hg10 mi
9:51 PM48 °FPassing clouds.No wind77%30.01 "Hg10 mi
8:51 PM49 °FPassing clouds.No wind66%30.02 "Hg10 mi
7:51 PM52 °FPassing clouds.3 mph59%30.01 "Hg10 mi
6:51 PM53 °FPassing clouds.3 mph59%30.01 "Hg10 mi
5:51 PM58 °FPassing clouds.7 mph50%30.00 "Hg10 mi
4:51 PM61 °FPassing clouds.5 mph41%29.99 "Hg10 mi
3:51 PM61 °FScattered clouds.6 mph42%30.01 "Hg10 mi
2:51 PM61 °FScattered clouds.7 mph42%30.02 "Hg10 mi
1:51 PM60 °FPartly sunny.N/A49%30.05 "Hg10 mi
12:51 PM56 °FPartly sunny.9 mph58%30.07 "Hg10 mi
11:51 AM55 °FPartly sunny.8 mph59%30.08 "Hg10 mi
10:51 AM50 °FPartly sunny.5 mph80%30.10 "Hg10 mi
9:51 AM43 °FFog.No wind93%30.11 "Hg5 mi
Weather by CustomWeather, © 2014

See weather overviewHow to use our weather pages